Location: Aufkirchen
(47.9603°N, 11.3653°E)
Time: 07:19:22
(UTC+01:00)

Transit 2A - Pass Details

Date: 27 November 2020
Orbit: 599 x 960 km, 66.7° (Epoch: 25 January)

Event Time Altitude Azimuth Distance (km) Brightness Sun altitude
Rises 22:47:49 0° 313° (NW) 3,493 - -59.4°
Reaches altitude 10° 22:52:38 10° 348° (NNW) 2,458 - -59.9°
Maximum altitude 22:54:15 11° 4° (N) 2,340 - -60.1°
Drops below altitude 10° 22:55:50 10° 21° (NNE) 2,385 - -60.2°
Sets 23:00:15 0° 57° (ENE) 3,206 - -60.6°
